PSLV DEB

Satellite information

Favourite Embed

Satellite Type and Status

DEBRISIN ORBIT

Key statistics

Satellite PSLV DEB at a glance.

Uptime

8659

Days in orbit

Revolutions

≈ 14.8

Per day

Orbit

SSO

Sun Synchronous Orbit

Inclination

98.3

Latest

Satellite identification and parameters

Extended collection of information and parameters for PSLV DEB.

Object identification

Identified? True

Debris? True

Object name: PSLV DEB

International designator: 2001-049PE

Object number (NORAD): 28852

Object ID (CCSDS): 28852

Country: INDIA (IND)

Current information (Y/N): Y

RCS size: SMALL

Orbital parameters

Period: 97.5 minutes

Inclination: 98.2914 deg

SMA: 7017.171 km

Apoapsis: 668.475 km

Periapsis: 609.596 km

RAAN: 213.8668 deg

Eccentricy: 0.0041954

Argument of periapsis: 9.0962 deg

Mean anomaly: 7.3713 deg

Mean motion: 14.76929322 rev/day

Mean motion (dot): 0.00000634 rev/day2

B* drag term: 0.000096909 1/REarth

Two-line elements (TLE)

Creation date: July 5, 2025, 6:46 a.m.

Reference frame: TEME

Reference center: EARTH

Epoch: July 4, 2025, 8:13 a.m. UTC

TLE line 0: 0 PSLV DEB

TLE line 1: 1 28852U 01049PE 25185.34246912 .00000634 00000-0 96909-4 0 9991

TLE line 2: 2 28852 98.2914 213.8668 0041954 9.0962 7.3713 14.76929322186419

Live tracking on map

Real-time ground track for satellite PSLV DEB.

In-orbit conjunctions

A list of the most updated potential collisions computed for object PSLV DEB.

Target Orbit TCA Probability of collision Miss distance Type
COSMOS 2251 DEB LEO 2025-03-27 06:10:08 0.0002561411 116.0 (m) DEBRIS
CZ-6A DEB LEO 2025-01-10 16:55:43 0.0001415719 959.0 (m) DEBRIS
COSMOS 2251 DEB LEO 2024-11-12 09:03:14 0.003778599 88.0 (m) DEBRIS

Associated space launch

Technology Experiment Satellite (TES) is Indian remote sensing and photo-reconnaissance satellite. The 1108 kg satellite carries a one-meter resolution panchromatic camera is an experimental satellite to demonstrate and validate, in orbit, technologies that could be used in the future satellites of Indian Space Research Organisation (ISRO). It was successfully placed in 572 km Sun-synchronous orbit on 22 October 2001 using the PSLV-C3. The PSLV-C3 also injected two more satellites: PROBA, a Belgian satellite and BIRD, a German satellite.

PSLV DEB was lifted into orbit during the mission ‘PSLV | TES’, on board a PSLV space rocket.

The launch took place on Oct. 22, 2001, 4:53 a.m. from Satish Dhawan Space Centre First Launch Pad.

For more information about the launch, click the button.

Launch to space PSLV | TES
PSLV | TES

Agency: N/A

Status: Launch Successful

Launch date: Oct. 22, 2001, 4:53 a.m. UTC

Rocket: PSLV

Launch pad: Satish Dhawan Space Centre First Launch Pad

Location: Satish Dhawan Space Centre, India

...

Latest news about this satellite

News about space launch
Proba-1’s T-plus 23 years in orbit

Proba-1’s T-plus 23 years in orbit


Newsletter sign-up

Weekly statistics, charts and insights to help you stay on top of the space industry.